Вернуться в каталог

KUIPER-00262

АктивенСвязьLEO
NORAD 67788·PAYLOAD·🇺🇸 United States

Запущен Feb 12, 2026 с Guiana Space Centre

Loading…

Ближайшие Пролёты (ближайшие 24 часа)

TLE

СвежийSource: CelesTrak SupGP

Эпоха: Sep 14, 2026, 23:07 UTC

1 67788C 26030AA  26257.96383102  .00006561  00000+0  85874-3 0  2570
2 67788  51.8996  78.6622 0001133 110.6661 106.5846 14.79927606    18

Отслеживайте KUIPER-00262 в реальном времени с AllMySat

Download on the App Store